Location: Pardubice
(50.0330°N, 15.7830°E)
Time: 09:53:42
(UTC+02:00)

SR - Visible Passes

Search period start: 07 October 2024 00:00
Search period end: 17 October 2024 00:00
Orbit: 578 x 855 km, 66.7° (Epoch: 06 October)

Date Brightness Start Highest point End Pass type
(mag) Time Alt. Az. Time Alt. Az. Time Alt. Az.
13 Oct ? 06:02:33 10° ESE 06:03:49 11° ESE 06:05:06 10° E visible
15 Oct ? 05:56:02 10° SSE 05:59:00 19° ESE 06:02:02 10° ENE visible
16 Oct ? 06:42:58 10° SSW 06:47:09 65° ESE 06:51:32 10° NE visible
